Location: Saint-Hippolyte
(43.6394°N, 4.7559°E)
Time: 15:22:04
(UTC+00:00)

Cosmos 1340 - Pass Details

Date: 24 October 2020
Orbit: 501 x 504 km, 81.2° (Epoch: 24 November)

Event Time Altitude Azimuth Distance (km) Brightness Sun altitude
Rises 17:21:25 0° 5° (N) 2,614 6.1 -7.7°
Reaches altitude 10° 17:24:07 10° 26° (NNE) 1,724 5.0 -8.1°
Maximum altitude 17:26:43 18° 69° (ENE) 1,313 4.1 -8.6°
Drops below altitude 10° 17:29:19 10° 113° (ESE) 1,716 4.8 -9.1°
Enters shadow 17:30:45 - 126° (SE) 2,160 5.4 -9.3°
